TimePDT,TemperatureF,Dew PointF,Humidity,Sea Level PressureIn,VisibilityMPH,Wind Direction,Wind SpeedMPH,Gust SpeedMPH,PrecipitationIn,Events,Conditions,WindDirDegrees,DateUTC
12:53 AM,63.0,55.9,78,30.03,10.0,South,10.4,-,N/A,,Clear,180,2013-07-02 07:53:00
1:53 AM,61.0,54.0,78,30.04,10.0,South,13.8,20.7,N/A,,Partly Cloudy,180,2013-07-02 08:53:00
2:53 AM,61.0,55.0,81,30.04,10.0,South,13.8,19.6,N/A,,Clear,170,2013-07-02 09:53:00
3:53 AM,61.0,54.0,78,30.04,10.0,South,9.2,-,N/A,,Clear,170,2013-07-02 10:53:00
4:53 AM,60.1,54.0,80,30.05,10.0,South,17.3,27.6,N/A,,Clear,170,2013-07-02 11:53:00
5:53 AM,60.1,54.0,80,30.07,10.0,South,10.4,-,N/A,,Clear,170,2013-07-02 12:53:00
7:53 AM,61.0,55.0,81,30.09,10.0,South,12.7,-,N/A,,Mostly Cloudy,170,2013-07-02 14:53:00
8:53 AM,63.0,55.0,75,30.10,10.0,South,12.7,21.9,N/A,,Scattered Clouds,170,2013-07-02 15:53:00
9:53 AM,66.0,55.9,70,30.09,10.0,South,11.5,18.4,N/A,,Clear,180,2013-07-02 16:53:00
10:53 AM,64.9,55.9,73,30.10,10.0,South,12.7,20.7,N/A,,Mostly Cloudy,180,2013-07-02 17:53:00
11:53 AM,68.0,55.9,65,30.12,10.0,South,15.0,23.0,N/A,,Clear,170,2013-07-02 18:53:00
12:53 PM,68.0,55.9,65,30.12,10.0,South,11.5,17.3,N/A,,Clear,170,2013-07-02 19:53:00
1:53 PM,70.0,57.0,63,30.11,10.0,SSE,11.5,-,N/A,,Clear,160,2013-07-02 20:53:00
2:53 PM,72.0,57.0,59,30.11,10.0,South,10.4,-,N/A,,Clear,180,2013-07-02 21:53:00
3:53 PM,73.0,57.9,59,30.10,10.0,South,9.2,-,N/A,,Clear,170,2013-07-02 22:53:00
4:53 PM,73.0,57.0,57,30.08,10.0,South,8.1,-,N/A,,Clear,170,2013-07-02 23:53:00
5:53 PM,73.0,55.9,55,30.06,10.0,South,10.4,-,N/A,,Clear,180,2013-07-03 00:53:00
6:53 PM,71.1,55.9,59,30.05,10.0,South,8.1,17.3,N/A,,Clear,170,2013-07-03 01:53:00
7:53 PM,69.1,55.0,61,30.04,10.0,South,9.2,-,N/A,,Clear,170,2013-07-03 02:53:00
8:53 PM,66.9,54.0,63,30.04,10.0,South,10.4,-,N/A,,Clear,170,2013-07-03 03:53:00
9:53 PM,64.9,53.1,65,30.04,10.0,South,11.5,-,N/A,,Clear,170,2013-07-03 04:53:00
10:53 PM,63.0,51.1,65,30.06,10.0,South,8.1,-,N/A,,Clear,170,2013-07-03 05:53:00
11:53 PM,62.1,50.0,65,30.07,10.0,South,10.4,-,N/A,,Clear,180,2013-07-03 06:53:00